Location: Newark
(48.2308°N, 120.8549°W)
Time: 07:38:41
(UTC+00:00)

Tiangong - Pass Details

Date: 30 June 2021
Orbit: 373 x 386 km, 41.5° (Epoch: 03 August)

Event Time Altitude Azimuth Distance (km) Brightness Sun altitude
Exits shadow 10:00:52 12° 144° (SE) 1,295 3.5 -14.2°
Drops below altitude 10° 10:01:09 10° 140° (SE) 1,383 3.6 -14.2°
Sets 10:03:32 0° 123° (ESE) 2,237 4.9 -14.0°
